Search your local weather  

 

Hazardous Weather Conditions

No active alerts for DENVER, COLORADO

Current Conditions: DENVER, COLORADO

A Few Clouds


57.0 F

Last Updated on Mar 31 2020, 7:45 pm MDT
Humidity: 23%
Wind Speed: W 13.8 mph
Barometer 29.84 in
Dewpoint: 19.4 F
Visibility: 45.00 mi
Precip: --
Heat Index: NA
Wind Chill: 54 F
Current conditions at:

Broomfield / Jeffco, CO (KBJC)

Lat: 39.90085 Lon: -105.10417

Local Radar Image active severe weather and emergency alerts image image weather storm and storm spotter reports image weather observation monitoring service image
Local
Radar
Active
Alerts
Storm Reports Weather
Monitoring

5 Day Forecast for DENVER, COLORADO (80202)

Tuesday

Partly Sunny

High 68 °F
Tuesday
Night
Partly Cloudy

Low 38 °F
Wednesday

Rain Showers
High 70 °F
Wednesday
Night
Slight Chance of Rain
Low 37 °F
Thursday

Snow Likely
High 44 °F
Thursday
Night
Snow

Low 25 °F
Friday

Slight Chance of Snow
High 41 °F
Friday
Night
Chance of Snow
Low 29 °F
Saturday

Slight Chance of Rain Showers
High 60 °F

Sign-up For Email & Text Message Weather Alert Notification Services


Advertise Here

Observation History for DENVER, COLORADO


Time Wind
(mph)
Vis
(mi)
Weather Precip (in) Temperature (F) Relative
Humidity
Wind
Chill
(F)
Heat
Index
(F)
Pressure
Air Dwpt altimeter
(in)
sea level
(mb)
7:45 pm MDT W 13.8 45.00 A Few Clouds -- 57.0 19.4 23% 54 NA 29.84 M
6:45 pm MDT W 19.6 45.00 Partly Cloudy -- 63.0 17.6 17% 61 NA 29.84 M
5:47 pm MDT W 24.2 G 33.4 45.00 Partly Cloudy and Breezy -- 64.0 17.6 16% NA NA 29.84 M
3:48 pm MDT NW 16.1 G 27.6 45.00 Partly Cloudy -- 66.0 19.4 17% NA NA 29.86 M
2:45 pm MDT W 8.1 G 20.7 10.00 Partly Cloudy -- 66.0 21.2 18% NA NA 29.89 M
12:59 pm MDT SE 3.5 10.00 Partly Cloudy -- 59.0 19.4 21% NA NA 29.94 M
11:45 am MDT SW 5.8 10.00 Partly Cloudy -- 57.0 19.4 23% 56 NA 29.99 M
10:55 am MDT S 5.8 10.00 Partly Cloudy -- 57.0 19.4 23% 56 NA 30.01 M
9:49 am MDT W 23.0 G 32.2 10.00 A Few Clouds and Breezy -- 57.0 21.2 25% 52 NA 30.03 M
8:47 am MDT SW 13.8 G 28.8 10.00 A Few Clouds -- 54.0 19.4 26% 50 NA 30.03 M
7:47 am MDT W 5.8 G 19.6 10.00 Mostly Cloudy -- 46.0 19.4 34% 43 NA 30.05 M
6:53 am MDT SE 4.6 10.00 Fair -- 41.0 21.2 45% 38 NA 30.04 M
5:54 am MDT N 6.9 10.00 Fair -- 45.0 19.4 37% 41 NA 30.05 M
4:48 am MDT SW 10.4 10.00 Partly Cloudy -- 45.0 19.4 37% 40 NA 30.04 M
3:54 am MDT S 6.9 10.00 Fair -- 45.0 19.4 37% 41 NA 30.05 M
2:53 am MDT W 10.4 10.00 Fair -- 45.0 21.2 39% 40 NA 30.05 M
1:54 am MDT SW 13.8 G 21.9 10.00 Fair -- 46.0 21.2 37% 40 NA 30.05 M
12:53 am MDT W 10.4 10.00 Fair -- 45.0 19.4 37% 40 NA 30.07 M
11:48 pm MDT SW 12.7 10.00 Fair -- 45.0 21.2 39% 39 NA 30.08 M
9:55 pm MDT W 13.8 30.00 Partly Cloudy -- 41.0 21.2 45% 33 NA 30.10 M
8:55 pm MDT W 8.1 30.00 Mostly Cloudy -- 46.0 17.6 32% 42 NA 30.08 M

Regional Weather Observation

Erie Municipal Airport, CO (KEIK)

Fair
62.0 F

Boulder Municipal Airport, CO (KBDU)

Fair
61.0 F

Fort Collins/Loveland - Northern Colorado Regional Airport, CO (KFNL)

A Few Clouds
58.0 F

Buckley Air Force Base Airport, CO (KBKF)

A Few Clouds
55.0 F

Denver, Denver International Airport, CO (KDEN)

A Few Clouds
57.0 F

Denver - Centennial Airport, CO (KAPA)

A Few Clouds
56.0 F

Advertise Here

Advertise Here